Flag for Argentina Weather past 2 weeks in Tucumán, Tucumán, Argentina

Now
90 °F

Clear.


Feels Like: 90 °F
Forecast: 71 / 89 °F
Wind: 7 mph from East

Location: Tucuman Aerodrome

Current Time: Oct 23, 2014 at 12:10:55 PM

Latest Report: Oct 23, 2014 at 11:00 AM


Visibility: 4 mi

Pressure: 29.98 "Hg

Humidity: 41%

Dew point: 63 °F

Location of TucumánLocation

Historic Weather in Tucumán — Graph

°F

Tucumán temperature yesterday

Maximum temperature yesterday: 97 °F (at 4:00 PM)
Minimum temperature yesterday: 68 °F (at 7:00 AM)
Average temperature yesterday: 82 °F

Past Weeks' High & Low Weather Summary

 TemperatureHumidityPressure
High102 °F (Oct 9, 4:00 PM)94% (Oct 19, 1:00 AM)30.21 "Hg (Oct 19, 1:00 AM)
Low50 °F (Oct 12, 6:00 AM)27% (Oct 22, 5:00 PM)29.50 "Hg (Oct 18, 4:00 PM)
Average76 °F61%29.91 "Hg
* Reported Oct 8 10:00 AM — Oct 23 10:00 AM, Tucumán, Weather by CustomWeather, © 2014

Note: Actual official high and low records may vary slightly from our data, if they occured in-between our weather recording intervals... More about our weather records

Advertising

Tucumán weather history for previous 24 hours

 ConditionsComfort  
Time TempWeatherWind HumidityBarometerVisibility
10:00 AM
Oct 23
84 °FClear.3 mph51%29.98 "Hg5 mi
8:00 AM73 °FClear.7 mph61%29.95 "Hg5 mi
7:00 AM73 °FSunny.12 mph65%29.95 "Hg10 mi
6:00 AM73 °FSunny.7 mph65%29.95 "Hg10 mi
5:00 AM73 °FClear.9 mph65%29.92 "Hg10 mi
4:00 AM79 °FClear.9 mph54%29.92 "Hg10 mi
3:00 AM79 °FClear.9 mph54%29.92 "Hg10 mi
2:00 AM79 °FClear.7 mph54%29.95 "Hg10 mi
1:00 AM81 °FClear.9 mph51%29.95 "Hg10 mi
12:00 AM82 °FClear.12 mph51%29.95 "Hg10 mi
11:00 PM
Oct 22
81 °FPassing clouds.7 mph54%29.95 "Hg5 mi
10:00 PM82 °FPassing clouds.7 mph55%29.92 "Hg5 mi
9:00 PM90 °FPassing clouds.17 mph31%29.89 "Hg5 mi
8:00 PM88 °FPassing clouds.20 mph35%29.86 "Hg5 mi
7:00 PM93 °FPassing clouds.24 mph30%29.83 "Hg5 mi
6:00 PM95 °FScattered clouds.28 mph28%29.80 "Hg5 mi
5:00 PM97 °FScattered clouds.29 mph27%29.80 "Hg5 mi
4:00 PM97 °FScattered clouds.23 mph28%29.83 "Hg5 mi
3:00 PM95 °FScattered clouds.18 mph32%29.86 "Hg4 mi
2:00 PM95 °FScattered clouds.7 mph32%29.86 "Hg4 mi
1:00 PM91 °FScattered clouds.5 mph38%29.89 "Hg4 mi
12:00 PM86 °FClear.No wind46%29.95 "Hg4 mi
Weather by CustomWeather, © 2014

See weather overviewHow to use our weather pages